EW5739 Weather Reports


time (UTC)temp
F
wind
direction
speed
knots
gust
knots
rain 1hr
in
rain 24hr
in
rain mn
in
humidity
%
barometer
mb
20260506002910 59 250 0.0 0.0 0.00 0.00 0.00 78 1006.6
20260506002410 59 115 0.0 0.0 0.00 0.00 0.00 78 1006.4
20260506001909 59 108 0.0 0.0 0.00 0.00 0.00 78 1006.2
20260506001410 59 92 0.0 0.0 0.00 0.00 0.00 78 1006.5
20260506000910 59 255 0.0 0.0 0.00 0.00 0.00 78 1006.7
20260506000410 59 255 0.0 0.0 0.00 0.00 0.00 78 1006.6
20260505235914 59 257 0.0 0.0 0.00 0.00 0.00 78 1006.9
20260505235910 59 255 0.0 0.0 0.00 0.00 0.00 78 1006.8
20260505235514 59 248 0.0 0.0 0.00 0.00 0.00 78 1006.9
20260505235012 59 276 0.0 0.0 0.00 0.00 0.00 77 1006.8
20260505233912 59 206 0.0 1.7 0.00 0.00 0.00 77 1006.7
20260505233908 59 244 0.0 1.7 0.00 0.00 0.00 77 1006.7
20260505232908 59 242 0.9 5.2 0.00 0.00 0.00 77 1006.5
20260505232411 59 270 0.0 4.3 0.00 0.00 0.00 78 1006.3
20260505232407 59 281 0.9 5.2 0.00 0.00 0.00 77 1006.7
20260505231405 59 90 0.9 2.6 0.00 0.00 0.00 77 1005.3
20260505230905 59 96 0.0 1.7 0.00 0.00 0.00 77 1005.0
20260505230404 59 84 0.0 1.7 0.00 0.00 0.00 77 1005.1
20260505225901 59 255 0.9 4.3 0.00 0.00 0.00 76 1004.9
20260505225402 60 117 0.9 4.3 0.00 0.00 0.00 76 1004.9
20260505224906 60 84 0.0 5.2 0.00 0.00 0.00 75 1004.5
20260505224902 60 175 0.9 5.2 0.00 0.00 0.00 75 1004.7
20260505223906 60 342 0.9 2.6 0.00 0.00 0.00 75 1004.5
20260505223902 60 187 0.0 2.6 0.00 0.00 0.00 75 1004.6
20260505222906 60 266 0.9 3.5 0.00 0.00 0.00 74 1004.3
20260505222902 60 91 0.9 3.5 0.00 0.00 0.00 75 1004.4
20260505222506 61 113 0.9 3.5 0.00 0.00 0.00 74 1004.3
20260505221900 61 245 0.9 3.5 0.00 0.00 0.00 74 1004.3
20260505221358 61 231 0.9 7.8 0.00 0.00 0.00 73 1004.3
20260505220402 62 272 1.7 8.7 0.00 0.00 0.00 73 1004.2
20260505220358 61 231 1.7 7.8 0.00 0.00 0.00 73 1004.3
20260505215355 62 163 1.7 8.7 0.00 0.00 0.00 72 1004.3
20260505214855 62 81 1.7 4.3 0.00 0.00 0.00 72 1004.3
20260505214356 63 259 0.9 4.3 0.00 0.00 0.00 71 1004.4
20260505213853 63 271 0.0 3.5 0.00 0.00 0.00 70 1004.3
20260505213354 64 232 0.9 4.3 0.00 0.00 0.00 69 1004.2
20260505212854 65 252 0.9 4.3 0.00 0.00 0.00 68 1004.2
20260505212357 65 25 0.0 0.0 0.00 0.00 0.00 69 1004.4
20260505212353 65 184 0.9 4.3 0.00 0.00 0.00 68 1004.3
20260505211852 65 69 0.9 9.6 0.00 0.00 0.00 68 1004.3
20260505211351 65 53 0.9 9.6 0.00 0.00 0.00 68 1004.3
20260505210850 65 96 0.0 0.0 0.00 0.00 0.00 69 1004.3
20260505205851 65 124 0.0 0.0 0.00 0.00 0.00 69 1004.3
20260505205847 65 217 0.0 0.0 0.00 0.00 0.00 70 1004.4
20260505204847 65 139 0.0 3.5 0.00 0.00 0.00 69 1004.1
20260505204350 65 110 1.7 5.2 0.00 0.00 0.00 68 1004.2
20260505204346 65 201 0.9 3.5 0.00 0.00 0.00 69 1004.1
20260505203343 66 136 0.9 5.2 0.00 0.00 0.00 68 1004.1
20260505202844 66 200 0.9 3.5 0.00 0.00 0.00 69 1004.3
20260505202343 65 350 1.7 4.3 0.00 0.00 0.00 69 1004.4
20260505201844 65 137 1.7 4.3 0.00 0.00 0.00 69 1004.3
20260505201344 65 213 1.7 4.3 0.00 0.00 0.00 68 1004.4
20260505200843 66 104 0.9 4.3 0.00 0.00 0.00 67 1004.4
20260505200343 66 250 1.7 4.3 0.00 0.00 0.00 67 1004.5
20260505195844 67 103 1.7 5.2 0.00 0.00 0.00 67 1004.6
20260505195344 67 85 1.7 8.7 0.00 0.00 0.00 66 1004.6
20260505194844 67 210 1.7 8.7 0.00 0.00 0.00 66 1004.6
20260505194347 68 212 1.7 6.1 0.00 0.00 0.00 67 1004.9
20260505194343 68 135 0.9 6.1 0.00 0.00 0.00 65 1004.8
20260505193343 67 240 1.7 6.1 0.00 0.00 0.00 66 1004.8
20260505192843 68 142 1.7 5.2 0.00 0.00 0.00 66 1005.0
20260505192343 69 127 0.9 5.2 0.00 0.00 0.00 65 1005.2
20260505191844 69 243 0.9 4.3 0.00 0.00 0.00 65 1005.3
20260505191343 69 132 0.9 4.3 0.00 0.00 0.00 65 1005.4
20260505190843 69 150 0.0 4.3 0.00 0.00 0.00 65 1005.2
20260505190343 69 224 0.0 0.0 0.00 0.00 0.00 65 1005.3
20260505185843 69 133 0.0 1.7 0.00 0.00 0.00 65 1005.2
20260505185340 69 111 0.9 5.2 0.00 0.00 0.00 65 1005.4
20260505184839 68 283 1.7 5.2 0.00 0.00 0.00 66 1005.4
20260505184338 67 210 1.7 4.3 0.00 0.00 0.00 67 1005.5
20260505183835 67 181 0.9 3.5 0.00 0.00 0.00 68 1005.7
20260505183335 66 92 0.9 6.1 0.00 0.00 0.00 69 1005.6
20260505182835 66 136 1.7 6.1 0.00 0.00 0.00 68 1005.6
20260505182335 67 160 0.9 4.3 0.00 0.00 0.00 66 1005.6
20260505181832 68 284 0.9 4.3 0.00 0.00 0.00 66 1005.6
20260505181334 68 200 0.9 4.3 0.00 0.00 0.00 65 1005.5
20260505180833 69 131 1.7 4.3 0.00 0.00 0.00 65 1005.5
20260505180333 69 229 1.7 5.2 0.00 0.00 0.00 65 1005.4
20260505175839 69 108 0.9 5.2 0.00 0.00 0.00 65 1005.5
20260505175333 69 347 1.7 4.3 0.00 0.00 0.00 65 1005.6
20260505174835 69 102 0.9 4.3 0.00 0.00 0.00 66 1005.8
20260505174831 68 215 1.7 4.3 0.00 0.00 0.00 66 1005.6
20260505173831 68 137 0.9 3.5 0.00 0.00 0.00 66 1006.1
20260505173330 67 98 0.9 4.3 0.00 0.00 0.00 67 1006.1
20260505172829 68 124 0.9 4.3 0.00 0.00 0.00 66 1006.2
20260505172329 67 158 0.9 3.5 0.00 0.00 0.00 67 1006.4
20260505171827 67 141 1.7 4.3 0.00 0.00 0.00 67 1006.2
20260505171323 67 156 1.7 4.3 0.00 0.00 0.00 66 1006.2
20260505170830 67 221 1.7 5.2 0.00 0.00 0.00 66 1006.5
20260505170826 67 149 1.7 4.3 0.00 0.00 0.00 66 1006.4
20260505165826 68 90 0.9 5.2 0.00 0.00 0.00 66 1006.6
20260505165322 68 210 0.9 5.2 0.00 0.00 0.00 67 1006.6
20260505164823 67 110 1.7 5.2 0.00 0.00 0.00 66 1006.6
20260505164321 68 119 1.7 6.1 0.00 0.00 0.00 65 1006.7
20260505163822 68 120 1.7 6.1 0.00 0.00 0.00 65 1006.8
20260505163319 69 273 0.9 3.5 0.00 0.00 0.00 64 1006.7
20260505162827 69 214 0.0 2.6 0.00 0.00 0.00 65 1006.8
20260505162319 68 208 0.9 4.3 0.00 0.00 0.00 65 1006.9
20260505161821 67 271 0.9 5.2 0.00 0.00 0.00 67 1007.0
20260505161319 66 103 0.0 5.2 0.00 0.00 0.00 67 1007.2
20260505160821 66 300 0.0 0.0 0.00 0.00 0.00 70 1007.3
20260505160319 65 211 0.0 0.0 0.00 0.00 0.00 70 1007.3
20260505153317 61 297 0.0 0.0 0.00 0.00 0.00 76 1008.1
20260505152823 60 205 0.0 0.9 0.00 0.00 0.00 77 1008.1
20260505152819 60 300 0.0 0.0 0.00 0.00 0.00 77 1008.2
20260505151819 59 278 0.0 1.7 0.00 0.00 0.00 78 1008.2
20260505151321 60 266 0.0 0.0 0.00 0.00 0.00 76 1007.8
20260505151317 59 150 0.0 1.7 0.00 0.00 0.00 77 1007.8
20260505150317 60 200 0.0 0.0 0.00 0.00 0.00 75 1007.7
20260505140301 64 210 0.9 4.3 0.00 0.00 0.00 69 1007.8
20260505130229 62 136 0.9 4.3 0.00 0.00 0.00 71 1007.7
20260505124706 61 106 0.0 1.7 0.00 0.00 0.00 73 1007.8
20260505124207 61 205 0.0 0.0 0.00 0.00 0.00 73 1007.7
20260505123707 60 95 0.0 0.0 0.00 0.00 0.00 73 1007.8
20260505123206 60 208 0.0 0.0 0.00 0.00 0.00 75 1007.8
20260505122705 59 105 0.0 0.0 0.00 0.00 0.00 75 1007.8
20260505122205 58 248 0.0 0.0 0.00 0.00 0.00 76 1007.8
20260505121702 58 112 0.0 0.0 0.00 0.00 0.00 78 1007.9
20260505121204 57 144 0.0 0.0 0.00 0.00 0.00 77 1008.1
20260505120700 57 111 0.0 0.0 0.00 0.00 0.00 78 1008.1
20260505120157 57 206 0.0 0.0 0.00 0.00 0.00 79 1008.1
20260505115656 56 185 0.0 0.0 0.00 0.00 0.00 79 1008.3
20260505115153 56 110 0.0 0.0 0.00 0.00 0.00 80 1008.3
20260505115140 56 124 0.0 0.0 0.00 0.00 0.00 80 1008.2
20260505114102 55 147 0.0 0.0 0.00 0.00 0.00 81 1008.2
20260505113553 55 101 0.0 0.0 0.00 0.00 0.00 82 1008.3
20260505113049 54 153 0.0 0.0 0.00 0.00 0.00 84 1008.3
20260505112512 53 153 0.0 0.0 0.00 0.00 0.00 84 1008.3
20260505112006 53 261 0.0 0.9 0.00 0.00 0.00 85 1008.3
20260505111451 52 278 0.0 0.9 0.00 0.00 0.00 86 1008.3
20260505110945 52 9 0.0 0.0 0.00 0.00 0.00 87 1008.3
20260505110445 49 9 0.0 0.0 0.00 0.00 0.00 89 1008.2
20260505110441 51 9 0.0 0.0 0.00 0.00 0.00 89 1008.3
20260505101800 48 4 0.0 0.0 0.00 0.00 0.00 90 1008.1
20260505101258 48 4 0.0 0.0 0.00 0.00 0.00 90 1008.0
20260505100758 48 4 0.0 0.0 0.00 0.00 0.00 90 1007.9
20260505100258 47 4 0.0 0.0 0.00 0.00 0.00 91 1007.9
20260505095803 47 4 0.0 0.0 0.00 0.00 0.00 91 1008.0
20260505095759 47 4 0.0 0.0 0.00 0.00 0.00 91 1008.0
20260505094759 47 4 0.0 0.0 0.00 0.00 0.00 91 1008.0
20260505094302 46 4 0.0 0.0 0.00 0.00 0.00 91 1008.0
20260505094258 47 4 0.0 0.0 0.00 0.00 0.00 91 1008.0
20260505093253 47 4 0.0 0.0 0.00 0.00 0.00 91 1008.0
20260505092750 47 4 0.0 0.9 0.00 0.00 0.00 91 1007.9
20260505092250 47 4 0.0 0.9 0.00 0.00 0.00 91 1008.0
20260505091748 47 282 0.0 0.0 0.00 0.00 0.00 91 1008.1
20260505091248 47 282 0.0 0.0 0.00 0.00 0.00 90 1008.0
20260505090749 47 281 0.0 0.0 0.00 0.00 0.00 90 1008.0
20260505090246 47 281 0.0 0.0 0.00 0.00 0.00 90 1008.0
20260505085751 47 281 0.0 0.0 0.00 0.00 0.00 90 1008.1
20260505085747 47 281 0.0 0.0 0.00 0.00 0.00 90 1008.1
20260505085244 47 281 0.0 0.0 0.00 0.00 0.00 90 1008.1
20260505084244 47 281 0.0 0.0 0.00 0.00 0.00 89 1008.1
20260505083742 47 281 0.0 0.0 0.00 0.00 0.00 90 1008.1
20260505083240 47 281 0.0 0.0 0.00 0.00 0.00 89 1008.1
20260505082740 47 281 0.0 0.0 0.00 0.00 0.00 89 1008.1
20260505082240 47 282 0.0 0.0 0.00 0.00 0.00 90 1008.1
20260505081741 47 281 0.0 0.0 0.00 0.00 0.00 90 1008.2
20260505081240 47 281 0.0 0.0 0.00 0.00 0.00 90 1008.2
20260505080740 47 281 0.0 0.0 0.00 0.00 0.00 90 1008.3
20260505080240 46 282 0.0 0.0 0.00 0.00 0.00 90 1008.2
20260505075740 47 282 0.0 0.0 0.00 0.00 0.00 89 1008.2
20260505075240 47 281 0.0 0.0 0.00 0.00 0.00 88 1008.2
20260505074744 47 281 0.0 0.0 0.00 0.00 0.00 89 1008.1
20260505074740 47 282 0.0 0.0 0.00 0.00 0.00 88 1008.2
20260505073740 47 282 0.0 0.0 0.00 0.00 0.00 88 1008.2
20260505073240 47 282 0.0 0.0 0.00 0.00 0.00 87 1008.1
20260505072740 47 282 0.0 0.0 0.00 0.00 0.00 87 1008.1
20260505072239 48 282 0.0 0.0 0.00 0.00 0.00 87 1008.1
20260505071740 48 281 0.0 0.0 0.00 0.00 0.00 86 1008.1
20260505071240 48 281 0.0 0.0 0.00 0.00 0.00 86 1008.1
20260505070740 48 281 0.0 0.0 0.00 0.00 0.00 86 1008.1
20260505070240 48 281 0.0 0.0 0.00 0.00 0.00 85 1008.0
20260505065740 49 281 0.0 0.0 0.00 0.00 0.00 85 1008.0
20260505065240 49 281 0.0 0.0 0.00 0.00 0.00 85 1008.0
20260505064740 49 281 0.0 0.0 0.00 0.00 0.00 84 1008.0
20260505064243 49 281 0.0 0.0 0.00 0.00 0.00 84 1007.9
20260505064239 49 281 0.0 0.0 0.00 0.00 0.00 84 1007.9
20260505063240 49 281 0.0 0.0 0.00 0.00 0.00 84 1007.9
20260505062744 49 281 0.0 0.0 0.00 0.00 0.00 83 1008.0
20260505062740 49 282 0.0 0.0 0.00 0.00 0.00 84 1008.0
20260505061739 50 282 0.0 0.0 0.00 0.00 0.00 83 1008.0
20260505061238 49 281 0.0 0.0 0.00 0.00 0.00 83 1008.0
20260505060738 50 281 0.0 0.0 0.00 0.00 0.00 83 1008.0
20260505060238 50 281 0.0 0.0 0.00 0.00 0.00 83 1007.9
20260505055737 50 281 0.0 0.0 0.00 0.00 0.00 82 1007.8
20260505055238 50 281 0.0 0.0 0.00 0.00 0.00 82 1007.9
20260505054738 51 281 0.0 0.9 0.00 0.00 0.00 82 1007.9
20260505054238 51 281 0.0 0.9 0.00 0.00 0.00 81 1007.9
20260505053738 51 216 0.0 0.9 0.00 0.00 0.00 81 1007.9
20260505053238 51 216 0.0 0.0 0.00 0.00 0.00 80 1007.9
20260505052737 51 216 0.0 0.0 0.00 0.00 0.00 80 1007.9
20260505052236 52 216 0.0 0.0 0.00 0.00 0.00 79 1007.9
20260505051735 52 216 0.0 0.0 0.00 0.00 0.00 79 1007.9
20260505051236 52 216 0.0 0.0 0.00 0.00 0.00 78 1007.8
20260505050736 52 216 0.0 0.0 0.00 0.00 0.00 78 1007.8
20260505050236 53 216 0.0 0.0 0.00 0.00 0.00 78 1007.8
20260505041234 54 86 0.0 0.0 0.00 0.00 0.00 75 1007.2
20260505040734 54 87 0.0 0.0 0.00 0.00 0.00 75 1007.2
20260505040234 54 86 0.0 0.0 0.00 0.00 0.00 75 1007.1
20260505040230 53 88 0.0 0.9 0.00 0.00 0.00 77 1007.1
20260505035833 54 86 0.0 0.9 0.00 0.00 0.00 76 1007.1
20260505034728 53 99 0.0 0.9 0.00 0.00 0.00 78 1007.0
20260505034229 53 70 0.0 0.9 0.00 0.00 0.00 79 1007.1
20260505033728 52 357 0.0 0.0 0.00 0.00 0.00 80 1007.1
20260505033228 51 359 0.0 0.0 0.00 0.00 0.00 81 1007.0
20260505032728 51 359 0.0 0.0 0.00 0.00 0.00 82 1007.0
20260505032228 51 359 0.0 0.0 0.00 0.00 0.00 83 1007.0
20260505031728 50 359 0.0 0.0 0.00 0.00 0.00 85 1007.0
20260505031231 48 78 0.0 0.9 0.00 0.00 0.00 87 1007.1
20260505031225 49 5 0.0 0.0 0.00 0.00 0.00 85 1007.0
20260505030726 49 350 0.0 0.0 0.00 0.00 0.00 87 1007.1
20260505025726 48 73 0.0 0.9 0.00 0.00 0.00 89 1007.1
20260505025231 46 102 0.0 0.0 0.00 0.00 0.00 90 1007.2
20260505025226 47 98 0.0 0.0 0.00 0.00 0.00 90 1007.0
20260505024726 47 102 0.0 0.0 0.00 0.00 0.00 90 1007.2
20260505023726 46 250 0.0 0.0 0.00 0.00 0.00 91 1007.1
20260505023226 46 250 0.0 0.0 0.00 0.00 0.00 91 1007.1
20260505022725 46 250 0.0 0.0 0.00 0.00 0.00 91 1007.1
20260505022224 46 250 0.0 0.0 0.00 0.00 0.00 91 1007.1
20260505021724 46 250 0.0 0.0 0.00 0.00 0.00 91 1007.1
20260505021224 46 250 0.0 0.0 0.00 0.00 0.00 91 1007.0
20260505020724 46 250 0.0 0.0 0.00 0.00 0.00 90 1007.0
20260505020224 46 250 0.0 0.0 0.00 0.00 0.00 90 1007.0
20260505015724 46 250 0.0 0.0 0.00 0.00 0.00 90 1007.0
20260505015224 46 250 0.0 0.0 0.00 0.00 0.00 89 1007.0
20260505014728 46 250 0.0 0.0 0.00 0.00 0.00 89 1006.9
20260505014724 46 250 0.0 0.0 0.00 0.00 0.00 90 1006.9
20260505013723 46 250 0.0 0.0 0.00 0.00 0.00 88 1006.8
20260505013226 47 250 0.0 0.0 0.00 0.00 0.00 87 1006.8
20260505013222 47 250 0.0 0.0 0.00 0.00 0.00 88 1006.8
20260505012826 47 250 0.0 0.0 0.00 0.00 0.00 87 1006.8
20260505011722 47 250 0.0 0.0 0.00 0.00 0.00 87 1006.6
20260505011226 48 250 0.0 0.0 0.00 0.00 0.00 86 1006.5
20260505011222 48 250 0.0 0.0 0.00 0.00 0.00 86 1006.6
20260505010826 48 250 0.0 0.0 0.00 0.00 0.00 85 1006.5
20260505005726 49 250 0.0 0.0 0.00 0.00 0.00 84 1006.4
20260505005722 48 250 0.0 0.0 0.00 0.00 0.00 84 1006.5
20260505004725 49 250 0.0 0.0 0.00 0.00 0.00 83 1006.4
20260505004721 49 250 0.0 0.0 0.00 0.00 0.00 83 1006.4
20260505003719 50 250 0.0 0.0 0.00 0.00 0.00 82 1006.3
20260505003218 50 250 0.0 0.0 0.00 0.00 0.00 81 1006.2